Lorentz, WV

6:12 PM EST on February 10, 2016 (GMT -0500)
Buckhannon

Weather History for KW22 - April, 2014

Change the Weather History Date:

Saturday, April 19, 2014

  Actual Average (KEKN) Record (KEKN)
Temperature  
Mean Temperature 54 °F 51 °F  
Max Temperature 64 °F 64 °F 85 °F (1976)
Min Temperature 44 °F 38 °F 20 °F (1990)
Degree Days  
Heating Degree Days 11 14  
Month to date heating degree days 324  
Since 1 July heating degree days 5425  
Cooling Degree Days 0 0  
Month to date cooling degree days 0  
Year to date cooling degree days 0  
Growing Degree Days 4 (Base 50)    
Moisture  
Dew Point 33 °F    
Average Humidity 44    
Maximum Humidity 71    
Minimum Humidity 30    
Precipitation  
Precipitation 0.00 in 0.12 in 1.50 in (1998)
Month to date precipitation 2.37  
Year to date precipitation 12.66  
Snow  
Snow 0.00 in - - ()
Month to date snowfall  
Since 1 September snowfall  
Snow Depth -    
Sea Level Pressure  
Sea Level Pressure 30.25 in    
Wind  
Wind Speed 4 mph (NNE)    
Max Wind Speed 18 mph    
Max Gust Speed 25 mph    
Visibility 10 miles    
Events      
T = Trace of Precipitation, MM = Missing Value Source: NWS Daily Summary

Daily Weather History Graph

Daily Weather History Graph

Search for Another Location

Airport or City:

Trip Planner

Search our weather history database for the weather conditions in past years. The results will help you decide how hot, cold, wet, or windy it might be!

Date:

Astronomy

Apr. 19, 2014 Rise Set
Actual Time 6:38 AM EDT 8:02 PM EDT
Civil Twilight 6:10 AM EDT 8:30 PM EDT
Nautical Twilight 5:37 AM EDT 9:03 PM EDT
Astronomical Twilight 5:02 AM EDT 9:38 PM EDT
Moon No Moon Rise 9:56 AM EDT (4/19)
Length of Visible Light 14h 19m
Length of Day
13h 23m
Waning Gibbous, 79% of the Moon is Illuminated
Apr 19
Waning Gibbous
Apr 22
Last Quarter
Apr 29
New
May 6
First Quarter
May 14
Full

Hourly Weather History & Observations

Time (EDT) Temp. Windchill Dew Point Humidity Pressure Visibility Wind Dir Wind Speed Gust Speed Precip Events Conditions
12:15 AM 55.4 °F - 32.0 °F 41% 30.23 in 10.0 mi Calm Calm - N/A   Clear
12:35 AM 53.6 °F - 32.0 °F 44% 30.23 in 10.0 mi Calm Calm - N/A   Clear
12:55 AM 53.6 °F - 33.8 °F 47% 30.23 in 10.0 mi Calm Calm - N/A   Clear
1:15 AM 53.6 °F - 33.8 °F 47% 30.23 in 10.0 mi Calm Calm - N/A   Clear
1:35 AM 51.8 °F - 35.6 °F 54% 30.23 in 10.0 mi Calm Calm - N/A   Clear
1:55 AM 51.8 °F - 33.8 °F 50% 30.22 in 10.0 mi Calm Calm - N/A   Clear
2:15 AM 50.0 °F - 35.6 °F 58% 30.22 in 10.0 mi Calm Calm - N/A   Clear
2:35 AM 50.0 °F - 33.8 °F 54% 30.22 in 10.0 mi Calm Calm - N/A   Clear
2:55 AM 48.2 °F - 35.6 °F 62% 30.22 in 10.0 mi Calm Calm - N/A   Clear
3:15 AM 48.2 °F - 35.6 °F 62% 30.22 in 10.0 mi Calm Calm - N/A   Clear
3:35 AM 48.2 °F - 35.6 °F 62% 30.22 in 10.0 mi Calm Calm - N/A   Clear
3:55 AM 48.2 °F - 33.8 °F 58% 30.22 in 10.0 mi Calm Calm - N/A   Clear
4:15 AM 46.4 °F - 35.6 °F 66% 30.22 in 10.0 mi Calm Calm - N/A   Clear
4:35 AM 46.4 °F - 33.8 °F 62% 30.22 in 10.0 mi Calm Calm - N/A   Clear
4:55 AM 46.4 °F - 33.8 °F 62% 30.22 in 10.0 mi Calm Calm - N/A   Clear
5:15 AM 46.4 °F - 33.8 °F 62% 30.22 in 10.0 mi Calm Calm - N/A   Clear
5:35 AM 46.4 °F 45.2 °F 35.6 °F 66% 30.22 in 10.0 mi NE 3.5 mph - N/A   Clear
5:55 AM 46.4 °F 45.2 °F 33.8 °F 62% 30.23 in 10.0 mi NE 3.5 mph - N/A   Clear
6:15 AM 44.6 °F 42.2 °F 35.6 °F 71% 30.24 in 10.0 mi NNE 4.6 mph - N/A   Clear
6:35 AM 46.4 °F 42.9 °F 33.8 °F 62% 30.24 in 10.0 mi NE 6.9 mph - N/A   Clear
6:55 AM 46.4 °F 44.3 °F 32.0 °F 57% 30.25 in 10.0 mi NE 4.6 mph - N/A   Clear
7:15 AM 46.4 °F - 33.8 °F 62% 30.26 in 10.0 mi Calm Calm - N/A   Clear
7:35 AM 46.4 °F - 33.8 °F 62% 30.27 in 10.0 mi Calm Calm - N/A   Clear
7:55 AM 46.4 °F - 33.8 °F 62% 30.27 in 10.0 mi Calm Calm - N/A   Clear
8:15 AM 48.2 °F - 35.6 °F 62% 30.27 in 10.0 mi NNE 4.6 mph - N/A   Clear
8:35 AM 50.0 °F - 35.6 °F 58% 30.28 in 10.0 mi North 5.8 mph - N/A   Clear
8:55 AM 51.8 °F - 35.6 °F 54% 30.29 in 10.0 mi Calm Calm - N/A   Clear
9:15 AM 53.6 °F - 35.6 °F 51% 30.28 in 10.0 mi NNE 8.1 mph - N/A   Clear
9:35 AM 55.4 °F - 35.6 °F 47% 30.28 in 10.0 mi NNE 9.2 mph - N/A   Clear
9:55 AM 55.4 °F - 35.6 °F 47% 30.29 in 10.0 mi NNE 8.1 mph - N/A   Clear
10:15 AM 57.2 °F - 35.6 °F 44% 30.29 in 10.0 mi NE 9.2 mph - N/A   Clear
10:35 AM 59.0 °F - 35.6 °F 42% 30.29 in 10.0 mi NNE 11.5 mph - N/A   Clear
10:55 AM 60.8 °F - 37.4 °F 42% 30.29 in 10.0 mi North 11.5 mph - N/A   Clear
11:15 AM 60.8 °F - 37.4 °F 42% 30.29 in 10.0 mi North 11.5 mph - N/A   Clear
11:35 AM 62.6 °F - 37.4 °F 39% 30.28 in 10.0 mi North 15.0 mph - N/A   Clear
11:55 AM 62.6 °F - 37.4 °F 39% 30.28 in 10.0 mi NNE 16.1 mph 20.7 mph N/A   Clear
12:15 PM 62.6 °F - 37.4 °F 39% 30.27 in 10.0 mi North 18.4 mph 25.3 mph N/A   Clear
12:35 PM 62.6 °F - 37.4 °F 39% 30.28 in 10.0 mi NNE 9.2 mph 19.6 mph N/A   Clear
12:55 PM 62.6 °F - 37.4 °F 39% 30.27 in 10.0 mi North 9.2 mph - N/A   Clear
1:15 PM 62.6 °F - 35.6 °F 37% 30.25 in 10.0 mi North 13.8 mph 21.9 mph N/A   Clear
1:35 PM 64.4 °F - 35.6 °F 34% 30.25 in 10.0 mi NNE 13.8 mph - N/A   Clear
1:55 PM 62.6 °F - 37.4 °F 39% 30.25 in 10.0 mi North 12.7 mph 16.1 mph N/A   Clear
2:15 PM 64.4 °F - 35.6 °F 34% 30.25 in 10.0 mi North 11.5 mph - N/A   Clear
2:35 PM 64.4 °F - 35.6 °F 34% 30.25 in 10.0 mi North 11.5 mph - N/A   Clear
2:55 PM 64.4 °F - 35.6 °F 34% 30.25 in 10.0 mi North 10.4 mph - N/A   Clear
3:15 PM 64.4 °F - 35.6 °F 34% 30.25 in 10.0 mi North 8.1 mph - N/A   Clear
3:35 PM 64.4 °F - 33.8 °F 32% 30.24 in 10.0 mi North 8.1 mph - N/A   Clear
3:55 PM 64.4 °F - 33.8 °F 32% 30.24 in 10.0 mi NNW 12.7 mph - N/A   Clear
4:15 PM 64.4 °F - 33.8 °F 32% 30.23 in 10.0 mi North 12.7 mph 17.3 mph N/A   Clear
4:35 PM 64.4 °F - 32.0 °F 30% 30.23 in 10.0 mi North 12.7 mph 16.1 mph N/A   Clear
4:55 PM 64.4 °F - 32.0 °F 30% 30.23 in 10.0 mi North 10.4 mph - N/A   Clear
5:15 PM 62.6 °F - 32.0 °F 32% 30.23 in 10.0 mi North 12.7 mph 17.3 mph N/A   Clear
5:35 PM 62.6 °F - 32.0 °F 32% 30.24 in 10.0 mi North 10.4 mph - N/A   Clear
5:55 PM 62.6 °F - 30.2 °F 30% 30.24 in 10.0 mi North 8.1 mph - N/A   Clear
6:15 PM 62.6 °F - 32.0 °F 32% 30.24 in 10.0 mi North 9.2 mph - N/A   Clear
6:35 PM 60.8 °F - 30.2 °F 31% 30.24 in 10.0 mi North 9.2 mph - N/A   Clear
6:55 PM 60.8 °F - 30.2 °F 31% 30.24 in 10.0 mi North 11.5 mph - N/A   Clear
7:15 PM 59.0 °F - 30.2 °F 34% 30.24 in 10.0 mi North 10.4 mph - N/A   Clear
7:35 PM 59.0 °F - 28.4 °F 31% 30.24 in 10.0 mi NNE 9.2 mph - N/A   Clear
7:55 PM 57.2 °F - 28.4 °F 33% 30.25 in 10.0 mi North 9.2 mph - N/A   Clear
8:15 PM 57.2 °F - 28.4 °F 33% 30.25 in 10.0 mi North 4.6 mph - N/A   Clear
8:35 PM 55.4 °F - 28.4 °F 36% 30.25 in 10.0 mi NNE 5.8 mph - N/A   Clear
8:55 PM 55.4 °F - 28.4 °F 36% 30.26 in 10.0 mi NNE 6.9 mph - N/A   Clear
9:15 PM 55.4 °F - 26.6 °F 33% 30.26 in 10.0 mi NNE 8.1 mph - N/A   Clear
9:35 PM 55.4 °F - 26.6 °F 33% 30.27 in 10.0 mi NNE 8.1 mph - N/A   Clear
9:55 PM 55.4 °F - 26.6 °F 33% 30.27 in 10.0 mi NE 8.1 mph - N/A   Clear
10:15 PM 53.6 °F - 26.6 °F 35% 30.27 in 10.0 mi NE 5.8 mph - N/A   Clear
10:35 PM 53.6 °F - 24.8 °F 33% 30.27 in 10.0 mi ENE 6.9 mph - N/A   Clear
10:55 PM 53.6 °F - 24.8 °F 33% 30.27 in 10.0 mi NE 6.9 mph - N/A   Clear
11:15 PM 53.6 °F - 26.6 °F 35% 30.27 in 10.0 mi ENE 5.8 mph - N/A   Clear
11:35 PM 53.6 °F - 26.6 °F 35% 30.27 in 10.0 mi East 4.6 mph - N/A   Clear
11:55 PM 51.8 °F - 26.6 °F 38% 30.27 in 10.0 mi East 4.6 mph - N/A   Clear